Weather History for Corsicana, TX

Change the Weather History Date:

Thursday, November 29, 2012

  Actual Average (KACT) Record (KACT)
Temperature  
Mean Temperature 54 °F 52 °F  
Max Temperature 68 °F 63 °F 83 °F (1991)
Min Temperature 39 °F 41 °F 17 °F (1976)
Degree Days  
Heating Degree Days 12 13  
Month to date heating degree days 248  
Since 1 July heating degree days 315  
Cooling Degree Days 0 0  
Month to date cooling degree days 35  
Year to date cooling degree days 2791  
Growing Degree Days 4 (Base 50)    
Moisture  
Dew Point 42 °F    
Average Humidity 67    
Maximum Humidity 89    
Minimum Humidity 39    
Precipitation  
Precipitation 0.00 in 0.09 in 1.94 in (1908)
Month to date precipitation 2.73  
Year to date precipitation 31.85  
Snow  
Snow 0.00 in 0.00 in T in (2001)
Month to date snowfall 0.1  
Since 1 July snowfall 0.1  
Since 1 September snowfall 0.1  
Snow Depth -    
Sea Level Pressure  
Sea Level Pressure 30.22 in    
Wind  
Wind Speed 8 mph (SSE)    
Max Wind Speed 13 mph    
Max Gust Speed 20 mph    
Visibility 9 miles    
Events      
T = Trace of Precipitation, MM = Missing Value Source: NWS Daily Summary

Daily Weather History Graph

Daily Weather History Graph

Search for Another Location

Airport:

Trip Planner

Search our weather history database for the weather conditions in past years. The results will help you decide how hot, cold, wet, or windy it might be!

Date:

Astronomy

Nov. 29, 2012 Rise Set
Actual Time 7:07 AM CST 5:21 PM CST
Civil Twilight 6:40 AM CST 5:47 PM CST
Nautical Twilight 6:10 AM CST 6:17 PM CST
Astronomical Twilight 5:40 AM CST 6:47 PM CST
Moon 6:25 PM CST 7:54 AM CST
Length of Visible Light 11h 07m
Length of Day
10h 13m
Full, 99% of the Moon is Illuminated
Nov 29
Full
Dec 6
Last Quarter
Dec 13
New
Dec 19
First Quarter
Dec 28
Full

Hourly Weather History & Observations

Time (CST) Temp. Windchill Dew Point Humidity Pressure Visibility Wind Dir Wind Speed Gust Speed Precip Events Conditions
12:53 AM 44.1 °F 40.1 °F 35.1 °F 71% 30.30 in 10.0 mi SSE 6.9 mph - N/A   Clear
1:53 AM 43.0 °F 38.2 °F 35.1 °F 74% 30.28 in 10.0 mi SSE 8.1 mph - N/A   Clear
2:53 AM 43.0 °F 38.2 °F 35.1 °F 74% 30.28 in 10.0 mi SSE 8.1 mph - N/A   Clear
3:53 AM 39.9 °F 35.1 °F 34.0 °F 79% 30.27 in 10.0 mi SSE 6.9 mph - N/A   Clear
4:53 AM 41.0 °F 37.1 °F 35.1 °F 79% 30.27 in 10.0 mi SSE 5.8 mph - N/A   Clear
5:53 AM 39.9 °F 36.7 °F 36.0 °F 86% 30.27 in 10.0 mi SSE 4.6 mph - N/A   Clear
6:53 AM 39.0 °F 35.7 °F 36.0 °F 89% 30.29 in 8.0 mi SSE 4.6 mph - N/A   Clear
7:53 AM 43.0 °F 39.5 °F 39.0 °F 86% 30.29 in 6.0 mi SE 5.8 mph - N/A   Clear
8:53 AM 48.9 °F - 41.0 °F 74% 30.30 in 8.0 mi SSE 5.8 mph - N/A   Clear
9:53 AM 54.0 °F - 45.0 °F 72% 30.29 in 6.0 mi SE 11.5 mph - N/A   Haze
10:53 AM 59.0 °F - 42.1 °F 53% 30.28 in 8.0 mi South 11.5 mph - N/A   Clear
11:53 AM 64.0 °F - 44.1 °F 48% 30.25 in 10.0 mi South 12.7 mph - N/A   Clear
12:53 PM 64.9 °F - 43.0 °F 45% 30.21 in 10.0 mi South 10.4 mph 18.4 mph N/A   Clear
1:53 PM 66.9 °F - 42.1 °F 40% 30.18 in 10.0 mi South 11.5 mph 19.6 mph N/A   Clear
2:53 PM 68.0 °F - 42.1 °F 39% 30.15 in 10.0 mi South 9.2 mph - N/A   Clear
3:53 PM 68.0 °F - 44.1 °F 42% 30.14 in 10.0 mi SSE 9.2 mph - N/A   Clear
4:53 PM 66.0 °F - 46.0 °F 48% 30.15 in 10.0 mi SSE 9.2 mph - N/A   Scattered Clouds
5:53 PM 61.0 °F - 46.0 °F 58% 30.15 in 10.0 mi SSE 6.9 mph - N/A   Mostly Cloudy
6:53 PM 55.9 °F - 45.0 °F 67% 30.16 in 9.0 mi South 5.8 mph - N/A   Mostly Cloudy
7:53 PM 55.9 °F - 46.0 °F 69% 30.17 in 10.0 mi SSE 8.1 mph - N/A   Partly Cloudy
8:53 PM 57.9 °F - 48.0 °F 70% 30.17 in 10.0 mi SSE 5.8 mph - N/A   Clear
9:53 PM 55.0 °F - 48.0 °F 77% 30.17 in 9.0 mi SSE 6.9 mph - N/A   Clear
10:53 PM 57.9 °F - 51.1 °F 78% 30.16 in 9.0 mi SSE 10.4 mph - N/A   Overcast
11:53 PM 57.9 °F - 51.1 °F 78% 30.16 in 9.0 mi SSE 10.4 mph - N/A   Mostly Cloudy